Cosmos 921 Rocket - Orbit

View from above orbital plane
View from above orbital plane
View from above satellite
View from above satellite

Ground track
Ground track

The orbit data is extracted from the following two-line orbital elements,

1 10096U 77055B   13142.09225236  .00000541  00000-0  61179-4 0  1091
2 10096 075.8347 119.0096 0043305 030.6379 089.2115 14.87295872941060
Epoch (UTC): 22 May 2013 02:12:50
Eccentricity: 0.0043305
inclination: 75.8347°
perigee height: 576 km
apogee height: 636 km
right ascension of ascending node: 119.0096°
argument of perigee: 30.6379°
revolutions per day: 14.87295872
mean anomaly at epoch: 89.2115°
orbit number at epoch: 94106

The dashed part of the orbit path shows where the satellite is in the earth's shadow,  

Developed and maintained by Chris Peat, Heavens-Above GmbH. Please read the updated FAQ before sending e-mail. Imprint. DLR